Find Starlink 11514

NORAD ID: 62514 Int'l Des: 2025-004 Owner: SPXS Country: US Constellation: starlink operational
LEOCIRCULAR

当前视图

正在加载3D地球...

About Starlink 11514

Starlink 11514 (NORAD 62514) is a starlink constellation satellite (v2 mini d2c) launched Jan 8, 2025 by SPXS of US. It operates in LEO, CIRCULAR orbit with a mass of 960.00 kg.

关于 Starlink 11514

正在加载描述...

即将过境

Passes for default location (London). Set your location on the main map for personalized predictions.

高度历史

Loading altitude history...

两行轨道根数

1 62514U 25004D 26170.38538397 .00219873 00000-0 16682-2 0 9996
2 62514 43.0006 177.6511 0001303 284.9836 75.0887 15.70895539 83208
Epoch: Jun 19, 2026 • Age: 27 hours

当前状态

高度 365.4 km
速度 7.69 km/s
星下点 -38.15°S, 18.62°E
发射日期 Jan 8, 2025
运行时间 1.4 years
类型 internet

技术详情

分类 Payload
质量 960.00 kg
干质量 910.00 kg
总质量 960.00 kg
长度 0.30 m
直径 4.10 m
跨度 29.00 m
形状 Box + pan
制造商 SPXS
平台类型 Starlink V2MD
阶段状态 In Orbit
所有者/国家 SPXS/US

Most Searched